Regional Weather Roundup
Issued by NWS Midland/Odessa, TX

Home | Current Version | Previous Version | Text Only | Print | Product List | Glossary On
Versions: 1 2 3 4 5 6 7 8 9 10 11 12 13 14 15 16 17 18 19 20 21 22 23 24 25 26 27 28 29 30 31 32 33 34 35 36 37 38 39 40 41 42 43 44 45 46 47 48 49 50
005
ASUS44 KMAF 032010
RWRMAF
MIDLAND AREA WEATHER ROUNDUP
NATIONAL WEATHER SERVICE MIDLAND TX
300 PM CDT TUE MAY 03 2016

...IN SOUTHWEST TEXAS AND SOUTHEAST NEW MEXICO...

CITY           SKY/WX    TMP DP  RH WIND       PRES   REMARKS
ALPINE         SUNNY     78  32  18 N8G17     30.13F
ANDREWS        FAIR      76  37  24 SW8       30.07F
ARTESIA        SUNNY     77  32  19 NE9G17    30.08S
BIG SPRING     SUNNY     75  40  28 CALM      30.09F
CARLSBAD       SUNNY     79  33  19 VRB6      30.04F
DRYDEN           N/A     80  48  32 E10G21    30.02F
FORT STOCKTON  SUNNY     81  39  22 SE7       30.04F
GUAD PASS      SUNNY     78  28  16 SW21G26   30.14F
HOBBS          MOSUNNY   77  32  19 SW9       30.09F
MARFA          SUNNY     74  34  23 VRB5      30.12F
MIDLAND AIRPK  SUNNY     79  38  23 S8        30.07F
MIDLAND INTL   SUNNY     77  37  23 MISG      30.07F
ODESSA         SUNNY     77  36  22 VRB5      30.08F
PECOS          SUNNY     80  33  18 CALM      30.03F
PRESIDIO       NOT AVBL
SEMINOLE       MOSUNNY   77  34  21 W6        30.09S
SNYDER           N/A     74  45  35 SE8       30.06F
WINK           SUNNY     78  38  23 E8        30.04F
$$
...OTHER STATIONS IN TEXAS...

CITY           SKY/WX    TMP DP  RH WIND       PRES   REMARKS
ABILENE        SUNNY     72  49  44 VRB3      30.07F
AMARILLO       CLOUDY    69  37  30 NW15G21   30.12F
AUSTIN         SUNNY     75  49  39 N14G24    30.04F
BROWNSVILLE    CLOUDY    72  62  71 N8        30.01F
CORPUS CHRISTI PTSUNNY   80  50  34 N13       30.00F
DALLAS FTW     MOSUNNY   73  45  36 VRB6G17   30.06F
DEL RIO        SUNNY     77  55  46 SE8       30.02F
EL PASO        MOSUNNY   79  34  19 NE7       30.05F
HOUSTON INT    SUNNY     73  49  42 N13       30.00F
LUBBOCK        TSTM      67  44  43 S5        30.08S
SAN ANGELO     SUNNY     76  45  33 NE7       30.07F
SAN ANTONIO    MOSUNNY   78  46  32 NE13G21   30.03F
WACO           SUNNY     72  46  39 NE13      30.07F
WICHITA FALLS  NOT AVBL
$$
...OTHER LOCATIONS IN NEW MEXICO...

CITY           SKY/WX    TMP DP  RH WIND       PRES   REMARKS
ALAMAGORDO     SUNNY     75  27  16 NW8       30.11F
ALBUQUERQUE    MOSUNNY   69  24  18 VRB7      30.18F
CANNON AFB     MOSUNNY   69  36  30 NE7G20    30.13S
CLOVIS         SUNNY     70  39  32 NE15G24   30.16S
HOLLOMAN AFB   MOSUNNY   74  27  17 VRB2      30.09F
ROSWELL        MOSUNNY   76  31  19 CALM      30.07F
RUIDOSO          N/A     64  25  22 NW12G24   30.23F
SANTA FE       MOSUNNY   66  26  22 E5        30.20S
TRUTH OR CONSE MOSUNNY   74  27  17 VRB7      30.12F
TUCUMCARI      MOSUNNY   73  31  21 N13G20    30.13F
$$




USA.gov is the U.S. government's official web portal to all federal, state and local government web resources and services.